[[{"header":{"parameterUnit":"m.s-1","parameterCategory":1,"la1":30.2991,"la2":30.254,"lo1":-89.0895,"lo2":-89.0444,"dy":0.0017,"dx":0.0017,"nx":28,"ny":28,"refTime":"2024-02-23T03:00:00:Z","depth":0,"parameterNumber":2,"parameterNumberName":"U-component_of_WINDS"},"data":[0,0,0,0,0,0,0,0,0,0,0,0,0,0,0,0,0,0,0,0,0,0,0,0,0,0,0,0,0,0,0,0,0,0,0,0,0,0,0,0,0,0,0,0,0,0,0,0,0,0,0,0,0,0,0,0,0,0,2.6286,2.6287,0,2.6322,2.6322,2.6323,2.6296,2.6295,2.6294,2.6293,2.633,2.6332,2.6334,0,0,0,0,0,0,0,0,0,0,0,0,0,2.6199,2.62,2.6286,2.6287,2.6287,2.6322,2.6322,2.6323,2.6296,2.6295,2.6293,2.6292,2.6329,2.6332,2.6334,0,0,0,0,0,0,0,0,0,0,0,0,0,2.6236,2.6201,2.6286,2.6278,2.6278,2.6322,2.6322,2.6323,2.6296,2.6295,2.6293,2.6291,2.6328,2.6332,2.6335,2.6389,0,0,2.6344,2.6345,0,0,0,0,0,0,0,0,2.6234,2.6239,2.6279,2.6279,2.6278,2.6303,2.6305,2.6345,2.6297,2.6289,2.6293,2.629,2.6322,2.6326,2.6336,2.6391,2.6392,2.6344,2.6346,2.6348,2.6349,0,0,0,0,0,0,0,2.6231,2.6237,2.63,2.6279,2.6279,2.6274,2.6277,2.6313,2.6315,2.629,2.6288,2.6293,2.6322,2.6333,2.6337,2.6393,2.6344,2.6347,2.6349,2.635,2.6497,2.6498,0,0,0,0,0,0,2.6229,2.6235,2.6299,2.6301,2.6251,2.6277,2.628,2.6297,2.6315,2.6316,2.6294,2.6291,2.6329,2.6333,2.6338,2.6405,2.6348,2.6351,2.6352,2.6495,2.6497,2.6499,0,0,0,0,0,0,2.6227,2.6235,2.6298,2.6268,2.6276,2.628,2.6298,2.6298,2.631,2.6318,2.6318,2.6305,2.6328,2.6334,2.6377,2.6406,2.6352,2.6355,2.6492,2.6495,2.6498,2.6537,0,0,0,0,0,0,2.6225,2.6234,2.6254,2.6269,2.6277,2.6335,2.63,2.63,2.6315,2.6312,2.6328,2.633,2.6327,2.6373,2.638,2.6409,2.6357,2.649,2.6494,2.6497,2.6533,2.6541,2.6548,0,0,0,0,0,2.6222,2.6263,2.6255,2.6263,2.6302,2.6337,2.6342,2.6337,2.6317,2.6338,2.6344,2.6329,2.6401,2.6377,2.6386,2.6416,2.6488,2.6492,2.6497,2.653,2.654,2.6548,0,0,0,0,0,0,2.6252,2.6265,2.6256,2.6303,2.6319,2.6332,2.6357,2.6347,2.6369,2.6365,2.6359,2.6364,2.6409,2.6417,2.639,2.6471,2.6442,2.6448,2.6464,2.6473,2.648,2.6478,2.636,0,0,0,0,0,2.6264,2.629,2.6301,2.6342,2.635,2.6353,2.6368,2.6363,2.638,2.6386,2.6395,2.6412,2.6439,2.6456,2.6481,2.6535,2.6539,2.656,2.6567,2.6573,2.6579,2.661,2.662,2.6514,2.6514,2.6514,0,0,2.6289,2.63,2.6316,2.6348,2.6359,2.6389,2.6358,2.6389,2.6411,2.6391,2.6433,2.644,2.6459,2.6508,2.653,2.6516,2.6609,2.6579,2.6584,2.6586,2.6616,2.6626,2.6635,2.6517,2.6517,2.6516,0,0,2.635,2.636,2.6396,2.6409,2.6427,2.6429,2.6438,2.6454,2.6458,2.65,2.6486,2.6512,2.6558,2.6573,2.6586,2.6656,2.6644,2.6665,2.6703,2.6733,2.6742,2.6749,2.6776,2.6785,2.667,2.667,2.6671,0,2.6379,2.6421,2.6416,2.6449,2.6464,2.6448,2.6486,2.6498,2.6524,2.6536,2.6519,2.6578,2.659,2.6643,2.6661,2.6672,2.6683,2.6662,2.6741,2.6748,2.6755,2.6781,2.6791,2.6673,2.6673,2.6672,2.6672,0,2.6457,2.6486,2.6513,2.654,2.6558,2.6593,2.6595,2.6614,2.661,2.6614,2.6658,2.6672,2.67,2.6713,2.6708,2.6767,2.6758,2.6741,2.6712,2.6768,2.6792,2.6801,2.6676,2.6676,2.6675,2.6674,0,0,2.6535,2.656,2.657,2.6583,2.6604,2.6627,2.6663,2.6691,2.6709,2.6728,2.6759,2.68,2.6786,2.6801,2.6798,2.6825,2.6883,2.6806,2.6806,2.6821,2.6951,2.6964,2.6975,2.6875,2.6877,2.6878,2.695,0,2.6598,2.6659,2.6657,2.6715,2.6744,2.6731,2.6762,2.6779,2.6785,2.6812,2.6818,2.6848,2.6826,2.6836,2.6862,2.687,2.6909,2.6865,2.6905,2.6907,2.6901,2.6987,2.7,2.7067,2.6959,2.6961,2.6962,0,2.6679,2.6702,2.6763,2.6782,2.6794,2.6822,2.6849,2.6874,2.6894,2.6897,2.6916,2.6909,2.6948,2.6918,2.6971,2.6942,2.6958,2.6965,2.6968,2.6972,2.6938,2.6995,2.7088,2.7099,2.6976,2.6975,2.6974,0,2.6732,2.6778,2.6821,2.6832,2.6855,2.6876,2.6886,2.6905,2.6923,2.6947,2.696,2.6988,2.7004,2.7027,2.7029,2.7007,2.7085,2.7054,2.7089,2.7089,2.7106,2.7105,2.7205,2.7116,2.7115,2.7115,2.7115,0,2.6802,2.684,2.6845,2.6872,2.6915,2.6914,2.6957,2.6966,2.6983,2.7013,2.7003,2.7031,2.7032,2.7061,2.7063,2.7109,2.7116,2.712,2.7121,2.7122,2.7121,2.7133,2.7128,2.7118,2.7117,2.7117,2.7116,0,2.6868,2.6873,2.6919,2.6938,2.6944,2.6975,2.6992,2.7018,2.7024,2.7062,2.7071,2.708,2.7115,2.7119,2.7159,2.7161,2.7216,2.7211,2.721,2.7209,2.7245,2.7242,2.7356,2.7371,2.7271,2.7272,2.7273,0,2.6913,2.6943,2.6965,2.6984,2.6996,2.7027,2.7046,2.7046,2.7067,2.7094,2.7118,2.7151,2.7178,2.7234,2.7245,2.7276,2.7273,2.7311,2.7277,2.7278,2.7275,2.7273,2.7277,2.7317,2.7318,2.7319,2.732,0,2.6993,2.6995,2.7022,2.7051,2.7074,2.7097,2.7119,2.7135,2.7139,2.7163,2.7198,2.7219,2.7261,2.7295,2.7327,2.7339,2.7331,2.733,2.734,2.7342,2.734,2.7343,2.7228,2.7327,2.7327,2.7326,2.7326,2.7325,2.7051,2.7077,2.7098,2.7129,2.7146,2.7168,2.7194,2.7204,2.7233,2.7267,2.7266,2.7306,2.7328,2.737,2.7385,2.7417,2.7405,2.7419,2.7423,2.7426,2.7431,2.7335,2.7423,2.7422,2.7422,2.7422,2.7422,0,2.7131,2.7144,2.7174,2.7205,2.7231,2.7221,2.7245,2.7268,2.7302,2.7324,2.7351,2.7393,2.7427,2.7442,2.7476,2.7499,2.7496,2.7508,2.7506,2.751,2.7439,2.7427,2.751,2.751,2.751,2.751,2.751,2.751,2.7176,2.7221,2.7225,2.728,2.7293,2.7331,2.7346,2.7367,2.7384,2.7432,2.746,2.747,2.749,2.7525,2.7557,2.7561,2.7574,2.7588,2.759,2.7523,2.7515,2.7506,2.7495,2.7591,2.7591,2.7659,2.766,2.766]},{"header":{"parameterUnit":"m.s-1","parameterCategory":1,"la1":30.2991,"la2":30.254,"lo1":-89.0895,"lo2":-89.0444,"dy":0.0017,"dx":0.0017,"nx":28,"ny":28,"refTime":"2024-02-23T03:00:00:Z","depth":0,"parameterNumber":3,"parameterNumberName":"V-component_of_WINDS"},"data":[0,0,0,0,0,0,0,0,0,0,0,0,0,0,0,0,0,0,0,0,0,0,0,0,0,0,0,0,0,0,0,0,0,0,0,0,0,0,0,0,0,0,0,0,0,0,0,0,0,0,0,0,0,0,0,0,0,0,-4.5186,-4.5186,0,-4.5262,-4.5262,-4.5263,-4.525,-4.5249,-4.5248,-4.5246,-4.5322,-4.5325,-4.5328,0,0,0,0,0,0,0,0,0,0,0,0,0,-4.5028,-4.5031,-4.5185,-4.5186,-4.5187,-4.5261,-4.5263,-4.5264,-4.5251,-4.5249,-4.5247,-4.5246,-4.5321,-4.5324,-4.5328,0,0,0,0,0,0,0,0,0,0,0,0,0,-4.5099,-4.5032,-4.5185,-4.519,-4.5191,-4.5261,-4.5263,-4.5264,-4.5251,-4.5249,-4.5247,-4.5245,-4.5319,-4.5324,-4.5329,-4.5398,0,0,-4.5344,-4.5346,0,0,0,0,0,0,0,0,-4.5095,-4.5105,-4.5188,-4.519,-4.5191,-4.5245,-4.5234,-4.5309,-4.5251,-4.5228,-4.5246,-4.5244,-4.5297,-4.5304,-4.5322,-4.5402,-4.5405,-4.5344,-4.5347,-4.5349,-4.535,0,0,0,0,0,0,0,-4.509,-4.5102,-4.5215,-4.5189,-4.5191,-4.5188,-4.5196,-4.5248,-4.5273,-4.523,-4.5229,-4.5239,-4.5298,-4.5318,-4.5324,-4.5406,-4.5344,-4.5348,-4.5351,-4.5353,-4.5548,-4.555,0,0,0,0,0,0,-4.5084,-4.5098,-4.5213,-4.5218,-4.5137,-4.5192,-4.5201,-4.5229,-4.5272,-4.5277,-4.524,-4.5238,-4.531,-4.5318,-4.5327,-4.5412,-4.5349,-4.5353,-4.5356,-4.5546,-4.5549,-4.5551,0,0,0,0,0,0,-4.5081,-4.5095,-4.521,-4.5158,-4.5172,-4.5197,-4.5229,-4.5232,-4.5252,-4.528,-4.5284,-4.5256,-4.5309,-4.532,-4.5381,-4.5414,-4.5356,-4.536,-4.5543,-4.5547,-4.555,-4.5583,0,0,0,0,0,0,-4.5076,-4.5093,-4.512,-4.5158,-4.5175,-4.5264,-4.5231,-4.5235,-4.5261,-4.5258,-4.5296,-4.5301,-4.5308,-4.5374,-4.5386,-4.542,-4.5364,-4.554,-4.5545,-4.5549,-4.5579,-4.5587,-4.5594,0,0,0,0,0,-4.5071,-4.5125,-4.5122,-4.5136,-4.5209,-4.5266,-4.5275,-4.5284,-4.5263,-4.5291,-4.5309,-4.5299,-4.5409,-4.538,-4.5394,-4.543,-4.5538,-4.5544,-4.5549,-4.5575,-4.5585,-4.5594,0,0,0,0,0,0,-4.5089,-4.513,-4.5127,-4.5195,-4.5227,-4.5263,-4.5298,-4.5294,-4.5331,-4.5327,-4.5336,-4.5345,-4.5407,-4.5424,-4.5392,-4.55,-4.5471,-4.5479,-4.5487,-4.5496,-4.5504,-4.5498,-4.5368,0,0,0,0,0,-4.5102,-4.5145,-4.5178,-4.5236,-4.5252,-4.5272,-4.5297,-4.5302,-4.5334,-4.5348,-4.537,-4.5402,-4.5444,-4.5471,-4.5511,-4.5581,-4.559,-4.5613,-4.562,-4.5626,-4.5633,-4.5673,-4.5684,-4.5568,-4.5568,-4.5568,0,0,-4.5127,-4.5155,-4.5181,-4.524,-4.5265,-4.531,-4.5284,-4.5331,-4.5364,-4.5354,-4.5414,-4.5432,-4.5468,-4.5535,-4.5566,-4.5551,-4.5667,-4.5633,-4.5638,-4.5641,-4.568,-4.5691,-4.57,-4.5571,-4.5571,-4.557,0,0,-4.5196,-4.5221,-4.5273,-4.5299,-4.5338,-4.5352,-4.5364,-4.5401,-4.5414,-4.5474,-4.5468,-4.5507,-4.5579,-4.5605,-4.5628,-4.571,-4.5702,-4.5722,-4.5761,-4.58,-4.5809,-4.5817,-4.5847,-4.5858,-4.5729,-4.5729,-4.5729,0,-4.5222,-4.5289,-4.5299,-4.5348,-4.5375,-4.537,-4.5422,-4.5447,-4.5496,-4.5515,-4.5499,-4.559,-4.5613,-4.5687,-4.5707,-4.5725,-4.574,-4.5718,-4.5807,-4.5816,-4.5823,-4.5852,-4.5863,-4.5731,-4.5731,-4.5731,-4.573,0,-4.532,-4.5367,-4.5404,-4.5454,-4.5484,-4.5535,-4.5552,-4.5582,-4.5584,-4.5599,-4.5662,-4.5691,-4.5737,-4.5755,-4.5756,-4.5829,-4.5819,-4.5805,-4.5776,-4.5836,-4.5864,-4.5875,-4.5734,-4.5734,-4.5733,-4.5732,0,0,-4.5401,-4.5458,-4.5471,-4.5495,-4.5539,-4.5575,-4.5625,-4.5672,-4.5698,-4.5733,-4.5775,-4.5837,-4.5825,-4.5851,-4.5856,-4.589,-4.5954,-4.5872,-4.5873,-4.5887,-4.6037,-4.6048,-4.6061,-4.595,-4.5952,-4.5954,-4.6035,0,-4.5475,-4.5565,-4.5577,-4.5657,-4.5701,-4.5698,-4.5742,-4.5773,-4.579,-4.5829,-4.5846,-4.589,-4.587,-4.5886,-4.592,-4.5939,-4.5985,-4.5934,-4.599,-4.5992,-4.5981,-4.6075,-4.6086,-4.616,-4.6045,-4.6047,-4.6048,0,-4.5573,-4.5612,-4.5697,-4.5737,-4.5756,-4.5795,-4.584,-4.5878,-4.5914,-4.5923,-4.5954,-4.5955,-4.6007,-4.5976,-4.6048,-4.6014,-4.6037,-4.6051,-4.6054,-4.6059,-4.6024,-4.6083,-4.6184,-4.6196,-4.6065,-4.6064,-4.6062,0,-4.5624,-4.5699,-4.576,-4.578,-4.5827,-4.5855,-4.5876,-4.5911,-4.5939,-4.5978,-4.5996,-4.604,-4.6064,-4.6098,-4.6111,-4.6087,-4.6184,-4.6153,-4.6193,-4.6193,-4.6213,-4.6211,-4.632,-4.6228,-4.6228,-4.6227,-4.6227,0,-4.5705,-4.5758,-4.5784,-4.5821,-4.588,-4.5893,-4.595,-4.597,-4.6001,-4.6042,-4.6042,-4.6081,-4.6096,-4.6137,-4.6147,-4.6206,-4.6217,-4.6226,-4.6228,-4.6226,-4.6225,-4.6242,-4.6237,-4.623,-4.623,-4.6229,-4.6229,0,-4.5773,-4.5792,-4.5859,-4.5899,-4.5911,-4.5952,-4.5987,-4.6023,-4.604,-4.6092,-4.6105,-4.613,-4.6179,-4.6196,-4.6254,-4.6261,-4.633,-4.6327,-4.6318,-4.6319,-4.6358,-4.6354,-4.6481,-4.6498,-4.6395,-4.6396,-4.6396,0,-4.5823,-4.5864,-4.5909,-4.5938,-4.596,-4.6005,-4.6035,-4.6049,-4.6079,-4.6125,-4.6156,-4.6205,-4.6244,-4.6322,-4.6345,-4.639,-4.6389,-4.6431,-4.6396,-4.6393,-4.6391,-4.6388,-4.6393,-4.6437,-4.6438,-4.6439,-4.6439,0,-4.5911,-4.5919,-4.5962,-4.6009,-4.6044,-4.6081,-4.6117,-4.614,-4.616,-4.6194,-4.6245,-4.6276,-4.6337,-4.6385,-4.6432,-4.6453,-4.645,-4.645,-4.6462,-4.6461,-4.6454,-4.6459,-4.6336,-4.6447,-4.6446,-4.6446,-4.6445,-4.6445,-4.5972,-4.6008,-4.6047,-4.6095,-4.6124,-4.6158,-4.6195,-4.6217,-4.626,-4.6311,-4.6317,-4.6372,-4.6408,-4.6471,-4.6494,-4.6537,-4.6525,-4.6542,-4.6546,-4.655,-4.6554,-4.6447,-4.6545,-4.6545,-4.6545,-4.6545,-4.6545,0,-4.606,-4.6085,-4.6129,-4.6181,-4.6219,-4.6214,-4.6255,-4.6286,-4.6335,-4.637,-4.641,-4.6469,-4.6516,-4.6544,-4.6592,-4.6621,-4.6621,-4.6633,-4.6631,-4.6636,-4.6561,-4.6547,-4.6632,-4.6632,-4.6632,-4.6632,-4.6632,-4.6632,-4.611,-4.6172,-4.6186,-4.6262,-4.6287,-4.6342,-4.6365,-4.6397,-4.6425,-4.6491,-4.6532,-4.655,-4.6583,-4.6633,-4.6677,-4.6684,-4.6702,-4.6715,-4.6721,-4.665,-4.6641,-4.6633,-4.6619,-4.6719,-4.6719,-4.6793,-4.6793,-4.6794]}]]